Volver al catálogo

COSMOS 2251 DEB

ActivoLEO
NORAD 36008·DEBRIS·🇷🇺 Russia

Lanzado Jun 16, 1993 desde Plesetsk Cosmodrome

Loading…

Próximos Pases (próximas 24 horas)

TLE

ObsoletoSource: Space-Track

Época: Sep 8, 2026, 08:44 UTC

1 36008U 93036AXA 26251.36453361  .00003287  00000-0  11607-2 0  9992
2 36008  74.0060 140.8807 0163105 222.2979 136.5499 14.27911991644693

Sigue COSMOS 2251 DEB en tiempo real con AllMySat

Download on the App Store